N624JX CYUL-KSRQ

Flight info

Callsign N624JX
Flight time 2h 41m
Altitude 43000
Route FAWNS DCT BUGSY DCT ALB J6 JEFFF DCT BILIT DCT HURTS DCT DEEEZ Q409 MRPIT DCT NBC DCT ISUZO Q409 PUPYY DCT KYYUU LUBBR4
Aircraft C750/M-SBDE3FGHRWXY/S

Departure

Time 2026-05-04 22:55
Airport Montreal / Pierre Elliott Trudeau International Airport (CYUL)

Arrival

Time 2026-05-05 01:36
Airport Sarasota Bradenton International Airport (KSRQ)
Time Latitude Longitude Altitude Speed Heading
2026-05-04 22:41 45.47438 -73.71362 113 ft 0 kts 39°
2026-05-04 22:51 45.47439 -73.71360 112 ft 1 kts 39°
2026-05-04 22:52 45.47452 -73.71347 111 ft 3 kts 27°
2026-05-04 22:52 45.47479 -73.71354 112 ft 5 kts 338°
2026-05-04 22:52 45.47503 -73.71378 111 ft 4 kts 316°
2026-05-04 22:52 45.47520 -73.71404 112 ft 4 kts 313°
2026-05-04 22:53 45.47539 -73.71428 112 ft 3 kts 338°
2026-05-04 22:53 45.47566 -73.71426 112 ft 4 kts 352°
2026-05-04 22:53 45.47595 -73.71458 112 ft 7 kts 312°
2026-05-04 22:53 45.47625 -73.71505 112 ft 6 kts 313°
2026-05-04 22:54 45.47652 -73.71546 112 ft 6 kts 313°
2026-05-04 22:54 45.47682 -73.71591 112 ft 6 kts 313°
2026-05-04 22:54 45.47682 -73.71632 112 ft 3 kts 224°
2026-05-04 22:54 45.47615 -73.71718 112 ft 45 kts 222°
2026-05-04 22:55 45.47130 -73.72354 111 ft 132 kts 223°
2026-05-04 22:55 45.46399 -73.73311 553 ft 144 kts 223°
2026-05-04 22:55 45.45655 -73.74309 1194 ft 153 kts 225°
2026-05-04 22:55 45.44864 -73.75398 1769 ft 165 kts 224°
2026-05-04 22:56 45.43978 -73.76598 2337 ft 186 kts 223°
2026-05-04 22:56 45.42982 -73.77939 2907 ft 208 kts 224°
2026-05-04 22:56 45.41880 -73.79423 3469 ft 228 kts 224°
2026-05-04 22:56 45.40679 -73.81038 4082 ft 244 kts 225°
2026-05-04 22:57 45.39460 -73.82623 5359 ft 235 kts 224°
2026-05-04 22:57 45.37971 -73.83765 6129 ft 250 kts 210°
2026-05-04 22:57 45.36374 -73.84773 7043 ft 252 kts 211°
2026-05-04 22:57 45.34771 -73.85852 7952 ft 257 kts 212°
2026-05-04 22:58 45.33137 -73.86943 8929 ft 262 kts 211°
2026-05-04 22:58 45.31464 -73.88039 9791 ft 267 kts 211°
2026-05-04 22:58 45.29749 -73.89166 10375 ft 279 kts 211°
2026-05-04 22:58 45.27946 -73.90355 10881 ft 292 kts 211°
2026-05-04 22:59 45.26066 -73.91589 11396 ft 304 kts 211°
2026-05-04 22:59 45.24109 -73.92870 11921 ft 315 kts 210°
2026-05-04 22:59 45.22093 -73.94192 12444 ft 324 kts 210°
2026-05-04 22:59 45.20019 -73.95550 12986 ft 333 kts 210°
2026-05-04 23:00 45.17890 -73.96944 13525 ft 340 kts 210°
2026-05-04 23:00 45.15717 -73.98365 14009 ft 347 kts 210°
2026-05-04 23:00 45.13504 -73.99809 14531 ft 352 kts 210°
2026-05-04 23:00 45.11272 -74.01266 15105 ft 355 kts 210°
2026-05-04 23:01 45.09016 -74.02739 15676 ft 359 kts 210°
2026-05-04 23:01 45.06738 -74.04224 16269 ft 362 kts 210°
2026-05-04 23:01 45.04436 -74.05722 16847 ft 366 kts 210°
2026-05-04 23:01 45.02111 -74.07236 17447 ft 370 kts 210°
2026-05-04 23:02 44.99741 -74.08718 18011 ft 377 kts 206°
2026-05-04 23:02 44.97124 -74.09473 18527 ft 389 kts 193°
2026-05-04 23:02 44.94464 -74.09940 19133 ft 391 kts 193°
2026-05-04 23:02 44.91755 -74.10457 19722 ft 395 kts 193°
2026-05-04 23:03 44.89018 -74.10996 20306 ft 399 kts 193°
2026-05-04 23:03 44.86253 -74.11518 20885 ft 403 kts 193°
2026-05-04 23:03 44.83458 -74.12034 21442 ft 407 kts 193°
2026-05-04 23:03 44.80638 -74.12564 22004 ft 411 kts 193°
2026-05-04 23:04 44.77789 -74.13106 22556 ft 415 kts 193°
2026-05-04 23:04 44.74913 -74.13648 23102 ft 419 kts 193°
2026-05-04 23:04 44.71990 -74.14037 23508 ft 430 kts 185°
2026-05-04 23:04 44.68980 -74.13575 23960 ft 437 kts 178°
2026-05-04 23:05 44.65956 -74.13004 24399 ft 441 kts 178°
2026-05-04 23:05 44.62895 -74.12476 24771 ft 446 kts 179°
2026-05-04 23:05 44.59798 -74.11954 25196 ft 450 kts 178°
2026-05-04 23:05 44.56678 -74.11400 25658 ft 454 kts 178°
2026-05-04 23:06 44.53537 -74.10831 26107 ft 457 kts 178°
2026-05-04 23:06 44.50366 -74.10275 26530 ft 461 kts 179°
2026-05-04 23:06 44.47168 -74.09722 26975 ft 465 kts 179°
2026-05-04 23:06 44.43937 -74.09157 27384 ft 470 kts 178°
2026-05-04 23:07 44.40679 -74.08581 27816 ft 474 kts 178°
2026-05-04 23:07 44.37398 -74.08005 28274 ft 477 kts 178°
2026-05-04 23:07 44.34085 -74.07428 28707 ft 482 kts 179°
2026-05-04 23:07 44.30748 -74.06847 29155 ft 486 kts 179°
2026-05-04 23:08 44.27380 -74.06258 29597 ft 490 kts 179°
2026-05-04 23:08 44.23986 -74.05666 29959 ft 494 kts 179°
2026-05-04 23:08 44.20568 -74.05072 30338 ft 497 kts 178°
2026-05-04 23:08 44.17125 -74.04474 30712 ft 500 kts 178°
2026-05-04 23:09 44.13670 -74.03872 31259 ft 500 kts 178°
2026-05-04 23:09 44.10220 -74.03272 31772 ft 500 kts 178°
2026-05-04 23:09 44.06768 -74.02675 32298 ft 500 kts 178°
2026-05-04 23:09 44.03312 -74.02079 32797 ft 500 kts 178°
2026-05-04 23:10 43.99862 -74.01482 33332 ft 500 kts 178°
2026-05-04 23:10 43.96408 -74.00885 33818 ft 500 kts 178°
2026-05-04 23:10 43.92950 -74.00289 34224 ft 501 kts 178°
2026-05-04 23:10 43.89544 -73.99703 34737 ft 499 kts 178°
2026-05-04 23:11 43.86109 -73.99111 35281 ft 497 kts 178°
2026-05-04 23:11 43.82683 -73.98524 35798 ft 495 kts 178°
2026-05-04 23:11 43.79276 -73.97938 36351 ft 493 kts 178°
2026-05-04 23:11 43.75882 -73.97356 36932 ft 490 kts 177°
2026-05-04 23:12 43.72508 -73.96779 37517 ft 487 kts 177°
2026-05-04 23:12 43.69155 -73.96206 38123 ft 485 kts 177°
2026-05-04 23:12 43.65818 -73.95636 38675 ft 482 kts 177°
2026-05-04 23:12 43.62497 -73.95069 39148 ft 480 kts 177°
2026-05-04 23:13 43.59188 -73.94505 39583 ft 479 kts 177°
2026-05-04 23:13 43.55886 -73.93943 40029 ft 477 kts 177°
2026-05-04 23:13 43.52593 -73.93383 40477 ft 476 kts 177°
2026-05-04 23:13 43.49307 -73.92825 40929 ft 475 kts 177°
2026-05-04 23:14 43.46033 -73.92269 41353 ft 474 kts 177°
2026-05-04 23:14 43.42769 -73.91716 41794 ft 473 kts 178°
2026-05-04 23:14 43.39508 -73.91165 42229 ft 471 kts 178°
2026-05-04 23:14 43.36257 -73.90614 42659 ft 470 kts 178°
2026-05-04 23:15 43.29670 -73.89508 42766 ft 485 kts 178°
2026-05-04 23:15 43.22869 -73.88358 42783 ft 500 kts 177°
2026-05-04 23:16 43.15873 -73.87183 42787 ft 512 kts 177°
2026-05-04 23:16 43.08696 -73.85980 42785 ft 526 kts 177°
2026-05-04 23:17 43.01383 -73.84753 42793 ft 532 kts 177°
2026-05-04 23:17 42.94030 -73.83527 42789 ft 533 kts 177°
2026-05-04 23:18 42.86673 -73.82301 42768 ft 533 kts 177°
2026-05-04 23:18 42.79317 -73.81103 42778 ft 531 kts 179°
2026-05-04 23:19 42.72038 -73.81640 42776 ft 520 kts 196°
2026-05-04 23:19 42.65210 -73.84593 42792 ft 514 kts 204°
2026-05-04 23:20 42.58409 -73.87658 42800 ft 516 kts 201°
2026-05-04 23:20 42.51640 -73.90644 42804 ft 514 kts 203°
2026-05-04 23:21 42.44848 -73.93718 42805 ft 515 kts 202°
2026-05-04 23:21 42.38041 -73.96708 42807 ft 514 kts 202°
2026-05-04 23:22 42.31253 -73.99752 42814 ft 514 kts 202°
2026-05-04 23:22 42.24448 -74.02744 42819 ft 514 kts 202°
2026-05-04 23:23 42.17654 -74.05762 42828 ft 514 kts 202°
2026-05-04 23:23 42.10855 -74.08750 42817 ft 514 kts 202°
2026-05-04 23:24 42.05211 -74.11238 42832 ft 513 kts 202°
2026-05-04 23:24 41.98414 -74.14221 42832 ft 514 kts 202°
2026-05-04 23:25 41.91617 -74.17198 42802 ft 514 kts 202°
2026-05-04 23:25 41.84845 -74.20158 42826 ft 511 kts 202°
2026-05-04 23:26 41.78084 -74.23109 42830 ft 512 kts 202°
2026-05-04 23:26 41.71318 -74.26053 42833 ft 511 kts 202°
2026-05-04 23:27 41.64549 -74.28993 42836 ft 511 kts 202°
2026-05-04 23:27 41.57780 -74.31927 42836 ft 511 kts 202°
2026-05-04 23:28 41.51013 -74.34853 42844 ft 511 kts 202°
2026-05-04 23:28 41.44253 -74.37769 42863 ft 511 kts 202°
2026-05-04 23:29 41.37494 -74.40679 42864 ft 510 kts 202°
2026-05-04 23:29 41.30735 -74.43581 42858 ft 510 kts 202°
2026-05-04 23:30 41.24034 -74.46626 42846 ft 506 kts 208°
2026-05-04 23:30 41.17773 -74.50812 42867 ft 504 kts 211°
2026-05-04 23:31 41.11502 -74.54971 42862 ft 504 kts 211°
2026-05-04 23:31 41.05249 -74.59162 42869 ft 504 kts 211°
2026-05-04 23:32 40.98988 -74.63320 42876 ft 503 kts 211°
2026-05-04 23:32 40.92729 -74.67482 42870 ft 503 kts 211°
2026-05-04 23:33 40.86465 -74.71632 42870 ft 504 kts 211°
2026-05-04 23:33 40.80197 -74.75779 42869 ft 503 kts 211°
2026-05-04 23:34 40.73937 -74.79911 42864 ft 503 kts 211°
2026-05-04 23:34 40.67686 -74.84027 42861 ft 502 kts 211°
2026-05-04 23:35 40.61429 -74.88141 42866 ft 503 kts 211°
2026-05-04 23:35 40.55171 -74.92245 42861 ft 502 kts 211°
2026-05-04 23:36 40.48925 -74.96333 42879 ft 502 kts 211°
2026-05-04 23:36 40.42673 -75.00416 42884 ft 502 kts 211°
2026-05-04 23:37 40.36421 -75.04491 42863 ft 502 kts 210°
2026-05-04 23:37 40.30163 -75.08562 42886 ft 502 kts 210°
2026-05-04 23:38 40.23910 -75.12619 42886 ft 502 kts 210°
2026-05-04 23:38 40.17646 -75.16678 42904 ft 502 kts 210°
2026-05-04 23:39 40.11353 -75.20744 42904 ft 501 kts 210°
2026-05-04 23:39 40.05097 -75.24780 42905 ft 502 kts 210°
2026-05-04 23:40 39.98837 -75.28810 42903 ft 502 kts 210°
2026-05-04 23:40 39.92580 -75.32829 42905 ft 501 kts 210°
2026-05-04 23:41 39.86329 -75.36836 42908 ft 501 kts 210°
2026-05-04 23:41 39.80111 -75.40814 42909 ft 501 kts 210°
2026-05-04 23:42 39.73852 -75.44810 42917 ft 500 kts 210°
2026-05-04 23:42 39.67599 -75.48795 42916 ft 501 kts 210°
2026-05-04 23:43 39.61341 -75.52774 42916 ft 501 kts 210°
2026-05-04 23:43 39.55080 -75.56747 42911 ft 501 kts 210°
2026-05-04 23:44 39.48822 -75.60711 42908 ft 501 kts 210°
2026-05-04 23:44 39.42562 -75.64667 42907 ft 501 kts 210°
2026-05-04 23:45 39.36257 -75.68645 42884 ft 501 kts 210°
2026-05-04 23:45 39.30036 -75.72560 42913 ft 501 kts 210°
2026-05-04 23:46 39.23766 -75.76499 42915 ft 501 kts 210°
2026-05-04 23:46 39.17498 -75.80429 42916 ft 501 kts 210°
2026-05-04 23:47 39.11227 -75.84353 42909 ft 501 kts 210°
2026-05-04 23:47 39.04952 -75.88272 42914 ft 501 kts 210°
2026-05-04 23:48 38.98677 -75.92183 42932 ft 501 kts 210°
2026-05-04 23:48 38.92398 -75.96088 42931 ft 501 kts 210°
2026-05-04 23:49 38.86117 -75.99988 42937 ft 501 kts 210°
2026-05-04 23:49 38.79832 -76.03882 42937 ft 501 kts 210°
2026-05-04 23:50 38.73597 -76.07869 42911 ft 499 kts 212°
2026-05-04 23:50 38.67513 -76.12168 42936 ft 500 kts 213°
2026-05-04 23:51 38.61398 -76.16424 42952 ft 502 kts 212°
2026-05-04 23:51 38.55238 -76.20733 42952 ft 501 kts 213°
2026-05-04 23:52 38.49115 -76.24994 42943 ft 500 kts 212°
2026-05-04 23:52 38.43001 -76.29246 42943 ft 500 kts 212°
2026-05-04 23:53 38.36885 -76.33490 42940 ft 500 kts 212°
2026-05-04 23:53 38.30766 -76.37727 42938 ft 500 kts 212°
2026-05-04 23:54 38.24667 -76.41942 42938 ft 499 kts 212°
2026-05-04 23:54 38.18567 -76.46151 42936 ft 499 kts 212°
2026-05-04 23:55 38.12463 -76.50353 42941 ft 499 kts 212°
2026-05-04 23:56 38.03332 -76.56626 42943 ft 497 kts 213°
2026-05-04 23:56 37.97251 -76.60793 42943 ft 497 kts 213°
2026-05-04 23:57 37.91207 -76.64927 42945 ft 497 kts 213°
2026-05-04 23:57 37.85124 -76.69079 42953 ft 496 kts 213°
2026-05-04 23:58 37.79045 -76.73222 42958 ft 496 kts 213°
2026-05-04 23:58 37.72960 -76.77360 42962 ft 497 kts 213°
2026-05-04 23:59 37.66875 -76.81491 42970 ft 497 kts 213°
2026-05-04 23:59 37.60785 -76.85617 42971 ft 497 kts 213°
2026-05-05 00:00 37.54699 -76.89733 42964 ft 496 kts 212°
2026-05-05 00:00 37.48612 -76.93842 42967 ft 496 kts 212°
2026-05-05 00:01 37.42438 -76.97765 42967 ft 498 kts 210°
2026-05-05 00:01 37.36194 -77.01544 42970 ft 498 kts 210°
2026-05-05 00:02 37.29964 -77.05330 42975 ft 498 kts 210°
2026-05-05 00:02 37.23717 -77.09104 42961 ft 498 kts 210°
2026-05-05 00:03 37.17506 -77.12857 42969 ft 495 kts 210°
2026-05-05 00:03 37.11299 -77.16599 42975 ft 495 kts 210°
2026-05-05 00:04 37.06131 -77.19709 42977 ft 496 kts 210°
2026-05-05 00:04 36.99922 -77.23438 42978 ft 494 kts 210°
2026-05-05 00:05 36.93704 -77.27169 42976 ft 496 kts 210°
2026-05-05 00:05 36.86435 -77.31518 42991 ft 496 kts 210°
2026-05-05 00:06 36.81264 -77.34608 42999 ft 496 kts 210°
2026-05-05 00:06 36.75036 -77.38322 43007 ft 496 kts 210°
2026-05-05 00:07 36.68807 -77.42031 43006 ft 496 kts 210°
2026-05-05 00:07 36.62577 -77.45733 43005 ft 496 kts 210°
2026-05-05 00:08 36.56346 -77.49430 42984 ft 496 kts 210°
2026-05-05 00:08 36.50120 -77.53116 43000 ft 495 kts 210°
2026-05-05 00:09 36.43896 -77.56796 43004 ft 495 kts 210°
2026-05-05 00:09 36.37669 -77.60470 43003 ft 497 kts 210°
2026-05-05 00:10 36.31411 -77.64155 43000 ft 496 kts 210°
2026-05-05 00:10 36.25178 -77.67821 42993 ft 496 kts 210°
2026-05-05 00:11 36.18936 -77.71484 42996 ft 496 kts 210°
2026-05-05 00:11 36.12692 -77.75142 42999 ft 497 kts 210°
2026-05-05 00:12 36.06461 -77.78785 43013 ft 494 kts 210°
2026-05-05 00:12 36.00246 -77.82415 43012 ft 494 kts 210°
2026-05-05 00:13 35.94024 -77.86040 43013 ft 495 kts 210°
2026-05-05 00:13 35.87799 -77.89662 43001 ft 495 kts 210°
2026-05-05 00:14 35.81577 -77.93275 43015 ft 494 kts 210°
2026-05-05 00:14 35.75356 -77.96882 43021 ft 495 kts 210°
2026-05-05 00:15 35.69167 -78.00463 43020 ft 495 kts 210°
2026-05-05 00:15 35.62936 -78.04064 43031 ft 494 kts 210°
2026-05-05 00:16 35.56712 -78.07653 43031 ft 494 kts 211°
2026-05-05 00:16 35.50443 -78.11262 43031 ft 495 kts 210°
2026-05-05 00:17 35.44253 -78.14820 43030 ft 495 kts 210°
2026-05-05 00:17 35.38023 -78.18395 43030 ft 494 kts 210°
2026-05-05 00:18 35.31789 -78.21965 43034 ft 495 kts 210°
2026-05-05 00:18 35.25908 -78.26179 43018 ft 485 kts 222°
2026-05-05 00:19 35.20573 -78.31227 43032 ft 486 kts 222°
2026-05-05 00:19 35.15215 -78.36249 43053 ft 485 kts 222°
2026-05-05 00:20 35.09870 -78.41282 43057 ft 485 kts 222°
2026-05-05 00:20 35.04511 -78.46298 43059 ft 485 kts 222°
2026-05-05 00:21 34.99157 -78.51315 43061 ft 485 kts 222°
2026-05-05 00:21 34.93801 -78.56317 43064 ft 484 kts 222°
2026-05-05 00:22 34.88457 -78.61304 43052 ft 484 kts 222°
2026-05-05 00:22 34.83108 -78.66285 43054 ft 484 kts 222°
2026-05-05 00:23 34.77750 -78.71267 43062 ft 485 kts 222°
2026-05-05 00:23 34.72393 -78.76239 43006 ft 484 kts 222°
2026-05-05 00:24 34.67033 -78.81206 43053 ft 485 kts 222°
2026-05-05 00:24 34.61672 -78.86164 43056 ft 484 kts 222°
2026-05-05 00:25 34.56309 -78.91118 43060 ft 485 kts 222°
2026-05-05 00:25 34.50942 -78.96066 43060 ft 485 kts 222°
2026-05-05 00:26 34.45576 -79.00994 43054 ft 483 kts 222°
2026-05-05 00:26 34.40194 -79.05872 43063 ft 484 kts 221°
2026-05-05 00:27 34.34712 -79.10668 43074 ft 486 kts 221°
2026-05-05 00:27 34.29275 -79.15520 43076 ft 486 kts 221°
2026-05-05 00:28 34.23812 -79.20326 43073 ft 484 kts 221°
2026-05-05 00:28 34.18386 -79.25125 43072 ft 483 kts 221°
2026-05-05 00:29 34.12946 -79.29912 43076 ft 484 kts 221°
2026-05-05 00:29 34.07505 -79.34699 43077 ft 484 kts 221°
2026-05-05 00:30 34.02064 -79.39476 43073 ft 484 kts 221°
2026-05-05 00:30 33.96659 -79.44214 43070 ft 484 kts 221°
2026-05-05 00:31 33.91194 -79.48996 43075 ft 485 kts 221°
2026-05-05 00:31 33.85732 -79.53768 43081 ft 485 kts 221°
2026-05-05 00:32 33.80267 -79.58536 43073 ft 485 kts 221°
2026-05-05 00:32 33.74803 -79.63294 43077 ft 484 kts 221°
2026-05-05 00:33 33.69350 -79.68038 43074 ft 484 kts 221°
2026-05-05 00:33 33.63890 -79.72777 43081 ft 484 kts 221°
2026-05-05 00:34 33.58430 -79.77511 43082 ft 484 kts 221°
2026-05-05 00:34 33.52954 -79.82249 43039 ft 486 kts 221°
2026-05-05 00:35 33.47474 -79.86984 43083 ft 485 kts 221°
2026-05-05 00:35 33.41996 -79.91709 43087 ft 485 kts 221°
2026-05-05 00:36 33.36509 -79.96435 43094 ft 485 kts 221°
2026-05-05 00:36 33.31027 -80.01149 43102 ft 485 kts 221°
2026-05-05 00:37 33.25548 -80.05853 43098 ft 484 kts 221°
2026-05-05 00:37 33.20080 -80.10541 43093 ft 484 kts 221°
2026-05-05 00:38 33.14606 -80.15225 43090 ft 484 kts 221°
2026-05-05 00:38 33.09117 -80.19918 43076 ft 488 kts 221°
2026-05-05 00:39 33.03601 -80.24621 43089 ft 487 kts 221°
2026-05-05 00:39 32.98094 -80.29313 43087 ft 487 kts 221°
2026-05-05 00:40 32.92582 -80.34001 43086 ft 487 kts 221°
2026-05-05 00:40 32.87066 -80.38685 43089 ft 487 kts 221°
2026-05-05 00:41 32.81547 -80.43364 43085 ft 487 kts 221°
2026-05-05 00:41 32.76036 -80.48027 43083 ft 484 kts 221°
2026-05-05 00:42 32.70544 -80.52672 43089 ft 484 kts 221°
2026-05-05 00:42 32.65033 -80.57323 43089 ft 487 kts 221°
2026-05-05 00:43 32.59513 -80.61972 43082 ft 487 kts 221°
2026-05-05 00:43 32.53995 -80.66616 43054 ft 487 kts 221°
2026-05-05 00:44 32.48492 -80.71241 43088 ft 483 kts 222°
2026-05-05 00:44 32.43392 -80.76343 43096 ft 480 kts 226°
2026-05-05 00:45 32.38300 -80.81461 43099 ft 480 kts 226°
2026-05-05 00:45 32.33238 -80.86612 43111 ft 480 kts 226°
2026-05-05 00:46 32.28158 -80.91736 43086 ft 479 kts 226°
2026-05-05 00:46 32.23097 -80.96851 43082 ft 479 kts 226°
2026-05-05 00:47 32.18058 -81.01928 43078 ft 479 kts 226°
2026-05-05 00:47 32.12984 -81.07035 43083 ft 480 kts 226°
2026-05-05 00:48 32.07904 -81.12140 43058 ft 480 kts 226°
2026-05-05 00:48 32.02826 -81.17236 43041 ft 478 kts 226°
2026-05-05 00:49 31.98602 -81.21465 43063 ft 475 kts 227°
2026-05-05 00:49 31.93636 -81.26590 43060 ft 474 kts 228°
2026-05-05 00:50 31.88718 -81.31797 43074 ft 478 kts 228°
2026-05-05 00:50 31.83765 -81.37015 43086 ft 477 kts 228°
2026-05-05 00:51 31.78822 -81.42229 43088 ft 478 kts 228°
2026-05-05 00:51 31.73893 -81.47408 42725 ft 473 kts 229°
2026-05-05 00:51 31.71451 -81.49977 42317 ft 471 kts 229°
2026-05-05 00:52 31.69010 -81.52545 41916 ft 471 kts 229°
2026-05-05 00:52 31.66570 -81.55105 41532 ft 471 kts 228°
2026-05-05 00:52 31.64123 -81.57669 41150 ft 471 kts 228°
2026-05-05 00:52 31.61675 -81.60235 40806 ft 473 kts 228°
2026-05-05 00:53 31.59224 -81.62803 40457 ft 472 kts 228°
2026-05-05 00:53 31.56770 -81.65369 40104 ft 473 kts 228°
2026-05-05 00:53 31.54307 -81.67946 39751 ft 476 kts 229°
2026-05-05 00:53 31.51827 -81.70539 39381 ft 478 kts 229°
2026-05-05 00:54 31.49351 -81.73119 39047 ft 476 kts 229°
2026-05-05 00:54 31.46874 -81.75703 38704 ft 477 kts 229°
2026-05-05 00:54 31.44397 -81.78289 38294 ft 478 kts 229°
2026-05-05 00:54 31.41774 -81.80719 37866 ft 486 kts 222°
2026-05-05 00:55 31.38861 -81.82785 37452 ft 494 kts 216°
2026-05-05 00:55 31.35709 -81.84466 37047 ft 501 kts 211°
2026-05-05 00:55 31.32493 -81.86042 36677 ft 501 kts 211°
2026-05-05 00:55 31.29281 -81.87640 36302 ft 501 kts 211°
2026-05-05 00:56 31.26073 -81.89242 35873 ft 501 kts 211°
2026-05-05 00:56 31.22856 -81.90832 35507 ft 503 kts 211°
2026-05-05 00:56 31.19630 -81.92418 35144 ft 501 kts 211°
2026-05-05 00:56 31.16412 -81.94007 34791 ft 503 kts 211°
2026-05-05 00:57 31.13188 -81.95607 34434 ft 504 kts 211°
2026-05-05 00:57 31.09943 -81.97210 34096 ft 509 kts 211°
2026-05-05 00:57 31.06698 -81.98802 34056 ft 506 kts 211°
2026-05-05 00:58 31.00232 -82.01989 34056 ft 509 kts 211°
2026-05-05 00:58 30.93644 -82.05229 34048 ft 512 kts 211°
2026-05-05 00:59 30.87123 -82.08428 34046 ft 512 kts 211°
2026-05-05 00:59 30.80510 -82.11671 34054 ft 512 kts 211°
2026-05-05 01:00 30.73983 -82.14866 34044 ft 513 kts 211°
2026-05-05 01:00 30.67355 -82.18107 34047 ft 515 kts 211°
2026-05-05 01:01 30.60342 -82.20288 34048 ft 536 kts 194°
2026-05-05 01:01 30.52887 -82.21097 34062 ft 538 kts 193°
2026-05-05 01:02 30.45443 -82.21959 34073 ft 538 kts 194°
2026-05-05 01:02 30.37991 -82.22794 34073 ft 538 kts 193°
2026-05-05 01:03 30.30544 -82.23636 34074 ft 538 kts 193°
2026-05-05 01:03 30.23099 -82.24476 34076 ft 538 kts 193°
2026-05-05 01:04 30.15626 -82.25190 34011 ft 546 kts 187°
2026-05-05 01:04 30.07955 -82.24290 34073 ft 557 kts 180°
2026-05-05 01:04 30.04158 -82.23780 34071 ft 557 kts 181°
2026-05-05 01:05 29.96466 -82.22815 34077 ft 556 kts 181°
2026-05-05 01:05 29.88769 -82.21807 34087 ft 556 kts 181°
2026-05-05 01:06 29.81056 -82.20827 34084 ft 558 kts 181°
2026-05-05 01:06 29.73340 -82.19829 33288 ft 553 kts 181°
2026-05-05 01:07 29.69562 -82.19335 32566 ft 540 kts 181°
2026-05-05 01:07 29.65807 -82.18858 31850 ft 531 kts 181°
2026-05-05 01:07 29.62214 -82.18405 31163 ft 523 kts 181°
2026-05-05 01:07 29.58628 -82.17945 30448 ft 514 kts 181°
2026-05-05 01:08 29.55102 -82.17495 29757 ft 506 kts 181°
2026-05-05 01:08 29.51618 -82.17060 29062 ft 501 kts 181°
2026-05-05 01:08 29.48165 -82.16631 28406 ft 497 kts 181°
2026-05-05 01:08 29.44735 -82.16197 27753 ft 494 kts 180°
2026-05-05 01:09 29.41340 -82.15765 27106 ft 489 kts 180°
2026-05-05 01:09 29.37969 -82.15343 26469 ft 485 kts 180°
2026-05-05 01:09 29.34632 -82.14926 25833 ft 481 kts 180°
2026-05-05 01:09 29.31319 -82.14509 25195 ft 477 kts 180°
2026-05-05 01:10 29.28033 -82.14096 24579 ft 474 kts 179°
2026-05-05 01:10 29.24771 -82.13686 23960 ft 469 kts 179°
2026-05-05 01:10 29.21532 -82.13281 23299 ft 466 kts 179°
2026-05-05 01:10 29.18337 -82.12880 22685 ft 460 kts 179°
2026-05-05 01:11 29.15176 -82.12676 22075 ft 451 kts 184°
2026-05-05 01:11 29.12055 -82.12633 21488 ft 445 kts 184°
2026-05-05 01:11 29.08968 -82.12575 20902 ft 442 kts 183°
2026-05-05 01:11 29.05912 -82.12498 20317 ft 438 kts 183°
2026-05-05 01:12 29.02889 -82.12429 19742 ft 432 kts 183°
2026-05-05 01:12 28.99892 -82.12373 19166 ft 429 kts 183°
2026-05-05 01:12 28.96923 -82.12315 18603 ft 425 kts 182°
2026-05-05 01:12 28.93988 -82.12250 17976 ft 420 kts 182°
2026-05-05 01:13 28.91077 -82.12187 17415 ft 417 kts 182°
2026-05-05 01:13 28.88193 -82.12129 16861 ft 414 kts 182°
2026-05-05 01:13 28.85330 -82.12070 16315 ft 412 kts 181°
2026-05-05 01:13 28.82486 -82.12010 15786 ft 407 kts 181°
2026-05-05 01:14 28.79662 -82.11950 15251 ft 403 kts 181°
2026-05-05 01:14 28.76861 -82.11892 14717 ft 401 kts 180°
2026-05-05 01:14 28.74083 -82.11834 14189 ft 399 kts 180°
2026-05-05 01:14 28.71319 -82.11777 13633 ft 394 kts 180°
2026-05-05 01:15 28.68589 -82.11718 13114 ft 390 kts 180°
2026-05-05 01:15 28.65880 -82.11409 13023 ft 393 kts 174°
2026-05-05 01:15 28.63170 -82.11010 13026 ft 392 kts 174°
2026-05-05 01:15 28.60460 -82.10640 13023 ft 393 kts 175°
2026-05-05 01:16 28.57747 -82.10261 13020 ft 392 kts 174°
2026-05-05 01:16 28.55041 -82.09864 13022 ft 392 kts 174°
2026-05-05 01:16 28.52332 -82.09471 13026 ft 391 kts 174°
2026-05-05 01:16 28.49620 -82.09088 13023 ft 392 kts 174°
2026-05-05 01:17 28.46934 -82.08506 13016 ft 395 kts 168°
2026-05-05 01:17 28.44270 -82.07800 13018 ft 394 kts 168°
2026-05-05 01:17 28.41596 -82.07127 13014 ft 394 kts 169°
2026-05-05 01:17 28.38922 -82.06457 13019 ft 395 kts 169°
2026-05-05 01:18 28.36251 -82.05770 13032 ft 393 kts 169°
2026-05-05 01:18 28.33579 -82.05078 13025 ft 394 kts 169°
2026-05-05 01:18 28.30904 -82.04396 13024 ft 394 kts 169°
2026-05-05 01:18 28.28212 -82.03861 13031 ft 393 kts 174°
2026-05-05 01:19 28.25499 -82.03475 13035 ft 392 kts 174°
2026-05-05 01:19 28.22791 -82.03055 13035 ft 393 kts 174°
2026-05-05 01:19 28.20082 -82.02634 13040 ft 393 kts 174°
2026-05-05 01:19 28.17371 -82.02233 13038 ft 393 kts 174°
2026-05-05 01:20 28.14664 -82.01840 13035 ft 392 kts 175°
2026-05-05 01:20 28.11956 -82.01905 12963 ft 388 kts 192°
2026-05-05 01:20 28.09437 -82.02927 12993 ft 383 kts 208°
2026-05-05 01:20 28.07078 -82.04365 13023 ft 385 kts 210°
2026-05-05 01:21 28.04731 -82.05825 13023 ft 384 kts 210°
2026-05-05 01:21 28.02379 -82.07263 13021 ft 384 kts 210°
2026-05-05 01:21 28.00013 -82.08694 13019 ft 384 kts 210°
2026-05-05 01:21 27.97687 -82.10113 13030 ft 384 kts 210°
2026-05-05 01:22 27.95302 -82.11576 13025 ft 384 kts 210°
2026-05-05 01:22 27.92949 -82.13011 13034 ft 385 kts 210°
2026-05-05 01:22 27.90621 -82.14427 13037 ft 385 kts 210°
2026-05-05 01:22 27.88268 -82.15859 13030 ft 383 kts 210°
2026-05-05 01:23 27.85913 -82.17295 13026 ft 387 kts 210°
2026-05-05 01:23 27.83553 -82.18732 13018 ft 387 kts 210°
2026-05-05 01:23 27.81193 -82.20167 13015 ft 385 kts 210°
2026-05-05 01:23 27.78837 -82.21599 13009 ft 384 kts 210°
2026-05-05 01:24 27.76584 -82.23174 12159 ft 373 kts 220°
2026-05-05 01:24 27.74681 -82.25069 11272 ft 358 kts 223°
2026-05-05 01:24 27.72881 -82.26881 10839 ft 333 kts 222°
2026-05-05 01:24 27.71181 -82.28541 10436 ft 314 kts 221°
2026-05-05 01:25 27.69561 -82.30122 10043 ft 302 kts 222°
2026-05-05 01:25 27.68013 -82.31650 9649 ft 289 kts 222°
2026-05-05 01:25 27.66524 -82.33122 9292 ft 281 kts 222°
2026-05-05 01:25 27.65058 -82.34564 8938 ft 278 kts 222°
2026-05-05 01:26 27.63609 -82.35988 8573 ft 275 kts 222°
2026-05-05 01:26 27.62188 -82.37427 8206 ft 271 kts 226°
2026-05-05 01:26 27.61224 -82.39242 7829 ft 273 kts 250°
2026-05-05 01:26 27.60941 -82.41338 7492 ft 270 kts 266°
2026-05-05 01:27 27.60900 -82.43465 7171 ft 273 kts 267°
2026-05-05 01:27 27.60848 -82.45594 6810 ft 270 kts 266°
2026-05-05 01:27 27.60786 -82.47704 6451 ft 269 kts 266°
2026-05-05 01:27 27.60726 -82.49816 6085 ft 271 kts 267°
2026-05-05 01:28 27.60668 -82.51947 5730 ft 271 kts 266°
2026-05-05 01:28 27.60610 -82.54081 5377 ft 274 kts 267°
2026-05-05 01:28 27.60550 -82.56222 5022 ft 273 kts 266°
2026-05-05 01:28 27.60490 -82.58360 4660 ft 274 kts 266°
2026-05-05 01:29 27.60429 -82.60529 4288 ft 277 kts 266°
2026-05-05 01:29 27.60369 -82.62659 3930 ft 265 kts 266°
2026-05-05 01:29 27.60290 -82.64668 3596 ft 248 kts 263°
2026-05-05 01:29 27.59715 -82.66396 3222 ft 229 kts 231°
2026-05-05 01:30 27.58665 -82.67649 2990 ft 211 kts 219°
2026-05-05 01:30 27.57618 -82.68770 2747 ft 206 kts 219°
2026-05-05 01:30 27.56599 -82.69871 2495 ft 201 kts 218°
2026-05-05 01:30 27.55566 -82.70888 2203 ft 194 kts 206°
2026-05-05 01:31 27.54749 -82.71207 2053 ft 183 kts 182°
2026-05-05 01:31 27.53529 -82.71098 1974 ft 172 kts 156°
2026-05-05 01:31 27.52542 -82.70411 1980 ft 166 kts 131°
2026-05-05 01:31 27.51759 -82.69458 1998 ft 168 kts 131°
2026-05-05 01:32 27.50904 -82.68552 1994 ft 169 kts 133°
2026-05-05 01:32 27.50078 -82.67625 1995 ft 168 kts 131°
2026-05-05 01:32 27.49265 -82.66692 1993 ft 167 kts 131°
2026-05-05 01:32 27.48451 -82.65757 1997 ft 166 kts 131°
2026-05-05 01:33 27.47634 -82.64817 1993 ft 167 kts 131°
2026-05-05 01:33 27.46870 -82.63943 1835 ft 145 kts 131°
2026-05-05 01:33 27.46205 -82.63175 1653 ft 130 kts 130°
2026-05-05 01:33 27.45600 -82.62480 1492 ft 119 kts 131°
2026-05-05 01:34 27.45042 -82.61839 1344 ft 111 kts 129°
2026-05-05 01:34 27.44516 -82.61229 1211 ft 107 kts 128°
2026-05-05 01:34 27.43997 -82.60632 1075 ft 107 kts 128°
2026-05-05 01:34 27.43466 -82.60018 936 ft 111 kts 128°
2026-05-05 01:35 27.42923 -82.59396 792 ft 111 kts 128°
2026-05-05 01:35 27.42387 -82.58779 655 ft 110 kts 128°
2026-05-05 01:35 27.41851 -82.58163 541 ft 112 kts 128°
2026-05-05 01:35 27.41294 -82.57521 368 ft 117 kts 128°
2026-05-05 01:36 27.40721 -82.56857 214 ft 119 kts 129°
2026-05-05 01:36 27.40121 -82.56174 46 ft 123 kts 131°
2026-05-05 01:36 27.39582 -82.55556 27 ft 87 kts 135°
2026-05-05 01:36 27.39311 -82.55248 25 ft 29 kts 134°
2026-05-05 01:37 27.39201 -82.55120 25 ft 18 kts 134°
2026-05-05 01:37 27.39141 -82.55048 28 ft 11 kts 123°
2026-05-05 01:37 27.39121 -82.54971 26 ft 10 kts 94°
2026-05-05 01:37 27.39148 -82.54919 27 ft 7 kts 43°
2026-05-05 01:38 27.39184 -82.54883 27 ft 8 kts 34°
2026-05-05 01:38 27.39242 -82.54876 27 ft 9 kts
2026-05-05 01:38 27.39303 -82.54875 27 ft 9 kts
2026-05-05 01:38 27.39342 -82.54867 27 ft 4 kts 46°
2026-05-05 01:39 27.39347 -82.54827 27 ft 5 kts 89°
2026-05-05 01:39 27.39348 -82.54790 27 ft 4 kts 89°
2026-05-05 01:39 27.39338 -82.54777 27 ft 1 kts 172°
2026-05-05 01:39 27.39333 -82.54777 27 ft 0 kts 179°